Weather History for Deer Park, WA

Change the Weather History Date:

Sunday, December 8, 2013

  Actual Average Record
Temperature  
Mean Temperature 4 °F 26 °F  
Max Temperature 13 °F 33 °F 39 °F (2004)
Min Temperature -5 °F 20 °F -5 °F (2013)
Degree Days  
Heating Degree Days 61 39  
Month to date heating degree days 379 302  
Since 1 July heating degree days 2295 2305  
Cooling Degree Days 0 0  
Month to date cooling degree days 0 0  
Year to date cooling degree days 310 187  
Moisture  
Dew Point -2 °F    
Average Humidity 73    
Maximum Humidity 87    
Minimum Humidity 58    
Precipitation  
Precipitation T in 0.09 in 0.77 in (2004)
Month to date precipitation 0.32 0.70  
Year to date precipitation 17.74 20.09  
Sea Level Pressure  
Sea Level Pressure 30.48 in    
Wind  
Wind Speed 1 mph (South)    
Max Wind Speed 8 mph    
Max Gust Speed 9 mph    
Visibility 9 miles    
Events Snow    
T = Trace of Precipitation, MM = Missing Value Source: NWS Daily Summary

Daily Weather History Graph

Daily Weather History Graph

Search for Another Location

Airport:

Trip Planner

Search our weather history database for the weather conditions in past years. The results will help you decide how hot, cold, wet, or windy it might be!

Date:

Astronomy

Dec. 08, 2013 Rise Set
Actual Time 7:26 AM PST 3:56 PM PST
Civil Twilight 6:50 AM PST 4:32 PM PST
Nautical Twilight 6:11 AM PST 5:12 PM PST
Astronomical Twilight 5:33 AM PST 5:49 PM PST
Moon 11:28 AM PST (12/8) 11:15 PM PST (12/8)
Length of Visible Light 9h 42m
Length of Day
8h 30m
Waxing Crescent, 41% of the Moon is Illuminated
Dec 8
Waxing Crescent
Dec 9
First Quarter
Dec 17
Full
Dec 25
Last Quarter
Jan 1
New

Hourly Weather History & Observations

Time (PST) Temp. Windchill Dew Point Humidity Pressure Visibility Wind Dir Wind Speed Gust Speed Precip Events Conditions
12:53 AM -5.1 °F - -9.9 °F 80% 30.43 in 10.0 mi Calm Calm - N/A   Clear
1:53 AM -4.0 °F - -9.0 °F 79% 30.43 in 10.0 mi Calm Calm - N/A   Clear
2:53 AM -0.0 °F - -6.0 °F 76% 30.43 in 10.0 mi Calm Calm - N/A   Partly Cloudy
3:53 AM 1.9 °F - -4.0 °F 76% 30.44 in 10.0 mi Calm Calm - N/A   Overcast
4:53 AM 3.0 °F -6.4 °F -4.0 °F 73% 30.45 in 10.0 mi South 4.6 mph - N/A   Overcast
5:48 AM 3.2 °F -4.2 °F -2.2 °F 78% 30.30 in 2.5 mi SW 3.5 mph - 0.00 in Snow Light Snow
5:53 AM 3.0 °F - -2.9 °F 76% 30.46 in 1.8 mi Calm Calm - 0.00 in Snow Light Snow
6:33 AM 3.2 °F - -2.2 °F 78% 30.31 in 1.8 mi Calm Calm - 0.00 in Snow Light Snow
6:36 AM 3.2 °F - -0.4 °F 85% 30.31 in 2.0 mi Calm Calm - 0.00 in Snow Light Snow
6:45 AM 3.2 °F - -2.2 °F 78% 30.30 in 7.0 mi Calm Calm - 0.00 in Snow Light Snow
6:53 AM 3.0 °F - -2.0 °F 80% 30.47 in 9.0 mi Calm Calm - 0.00 in   Mostly Cloudy
7:53 AM 1.9 °F - -2.0 °F 83% 30.51 in 10.0 mi Calm Calm - N/A   Mostly Cloudy
8:53 AM 5.0 °F - -0.9 °F 76% 30.51 in 10.0 mi Calm Calm - N/A   Overcast
9:53 AM 6.1 °F - -0.0 °F 76% 30.53 in 10.0 mi Calm Calm - N/A   Partly Cloudy
10:35 AM 8.6 °F 0.1 °F -0.4 °F 67% 30.37 in 10.0 mi SSE 4.6 mph - N/A   Mostly Cloudy
10:53 AM 8.1 °F -2.0 °F -0.0 °F 70% 30.52 in 10.0 mi SSE 5.8 mph - N/A   Mostly Cloudy
11:22 AM 8.6 °F 0.1 °F -0.4 °F 67% 30.36 in 10.0 mi South 4.6 mph - N/A   Scattered Clouds
11:53 AM 10.0 °F 1.8 °F -0.0 °F 64% 30.51 in 10.0 mi South 4.6 mph - N/A   Clear
12:53 PM 12.0 °F - -0.0 °F 59% 30.52 in 10.0 mi Calm Calm - N/A   Clear
1:53 PM 12.0 °F - -0.9 °F 56% 30.52 in 10.0 mi Calm Calm - N/A   Clear
2:53 PM 12.9 °F - -0.9 °F 54% 30.51 in 10.0 mi Calm Calm - N/A   Clear
3:53 PM 10.9 °F - -2.0 °F 56% 30.53 in 10.0 mi Calm Calm - N/A   Clear
4:53 PM 3.0 °F - -4.0 °F 73% 30.56 in 10.0 mi Calm Calm - N/A   Partly Cloudy
5:53 PM -0.0 °F - -5.1 °F 79% 30.56 in 10.0 mi Calm Calm - N/A   Partly Cloudy
6:53 PM 3.0 °F - -2.0 °F 80% 30.57 in 10.0 mi Calm Calm - N/A   Overcast
7:53 PM 3.9 °F - -0.0 °F 84% 30.59 in 10.0 mi Calm Calm - N/A   Mostly Cloudy
8:53 PM 6.1 °F - 1.0 °F 80% 30.57 in 10.0 mi Calm Calm - N/A   Overcast
9:53 PM 8.1 °F - 1.9 °F 76% 30.58 in 10.0 mi Calm Calm - N/A   Overcast
10:53 PM 9.0 °F - 1.9 °F 73% 30.57 in 10.0 mi Calm Calm - N/A   Overcast
11:53 PM 10.0 °F 3.6 °F 1.0 °F 67% 30.57 in 10.0 mi SSE 3.5 mph - N/A   Overcast